FW1404 Weather Reports


Display with metric or nautical units.
time (UTC)temp
F
wind
direction
speed
MPH
gust
MPH
rain 1hr
in
rain 24hr
in
rain mn
in
humidity
%
barometer
mb
20260831110246 70 242 7.0 10.0 0.00 0.00 0.00 71 1012.0
20260831105742 70 220 5.0 10.0 0.00 0.00 0.00 75 1011.9
20260831105246 69 231 3.0 6.0 0.00 0.00 0.00 76 1012.1
20260831104744 68 187 4.0 7.0 0.00 0.00 0.00 75 1012.2
20260831104245 67 231 5.0 7.0 0.00 0.00 0.00 75 1012.2
20260831103743 67 217 4.0 11.0 0.00 0.00 0.00 75 1012.3
20260831103243 67 211 7.0 11.0 0.00 0.00 0.00 75 1012.3
20260831102742 67 211 5.0 9.0 0.00 0.00 0.00 76 1012.5
20260831102245 67 211 5.0 9.0 0.00 0.00 0.00 75 1012.4
20260831102024 67 224 3.0 9.0 0.00 0.00 0.00 75 1012.4
20260831101244 67 231 6.0 9.0 0.00 0.00 0.00 75 1012.4
20260831101041 67 244 4.0 7.0 0.00 0.00 0.00 75 1012.3
20260831100244 67 251 4.0 7.0 0.00 0.00 0.00 74 1012.4
20260831095741 67 229 4.0 6.0 0.00 0.00 0.00 74 1012.3
20260831095246 67 246 4.0 6.0 0.00 0.00 0.00 74 1012.3
20260831094740 67 222 4.0 11.0 0.00 0.00 0.00 73 1012.4
20260831094242 67 241 6.0 11.0 0.00 0.00 0.00 74 1012.4
20260831093741 66 249 6.0 10.0 0.00 0.00 0.00 74 1012.4
20260831093242 66 256 4.0 7.0 0.00 0.00 0.00 75 1012.4
20260831092739 66 244 5.0 11.0 0.00 0.00 0.00 74 1012.4
20260831092243 66 286 4.0 11.0 0.00 0.00 0.00 74 1012.2
20260831091754 66 284 5.0 10.0 0.00 0.00 0.00 74 1012.2
20260831091241 66 252 7.0 9.0 0.00 0.00 0.00 74 1012.5
20260831090741 66 262 6.0 11.0 0.00 0.00 0.00 73 1012.4
20260831090535 66 234 5.0 11.0 0.00 0.00 0.00 73 1012.5
20260831085741 66 211 8.0 10.0 0.00 0.00 0.00 73 1012.4
20260831085237 0 251 6.0 6.0 0.00 0.00 0.00 1012.4
20260831085130 67 220 9.0 12.0 0.00 0.00 0.00 72 1012.2
20260831084407 67 220 9.0 12.0 0.00 0.00 0.00 72 1012.2
20260831083904 67 245 10.0 14.0 0.00 0.00 0.00 73 1012.2
20260831083406 67 266 8.0 14.0 0.00 0.00 0.00 73 1012.2
20260831082902 67 297 9.0 13.0 0.00 0.00 0.00 74 1012.0
20260831082403 66 260 7.0 13.0 0.00 0.00 0.00 74 1012.1
20260831081903 66 239 5.0 13.0 0.00 0.00 0.00 74 1012.2
20260831081405 66 231 10.0 15.0 0.00 0.00 0.00 73 1012.1
20260831080905 66 227 11.0 16.0 0.00 0.00 0.00 74 1012.0
20260831080408 65 224 8.0 16.0 0.00 0.00 0.00 76 1011.8
20260831075903 65 245 9.0 13.0 0.00 0.00 0.00 76 1011.7
20260831075405 65 234 10.0 14.0 0.00 0.00 0.00 76 1011.6
20260831074904 64 204 8.0 14.0 0.00 0.00 0.00 76 1011.4
20260831074405 64 210 11.0 13.0 0.00 0.00 0.00 79 1011.4
20260831074147 63 231 7.0 10.0 0.00 0.00 0.00 79 1011.4
20260831073409 62 201 5.0 6.0 0.00 0.00 0.00 79 1011.2
20260831072904 62 177 2.0 4.0 0.00 0.00 0.00 79 1011.0
20260831072405 62 163 1.0 3.0 0.00 0.00 0.00 79 1011.2
20260831071904 62 163 0.0 4.0 0.00 0.00 0.00 79 1011.3
20260831071404 62 163 1.0 4.0 0.00 0.00 0.00 78 1011.3
20260831070903 62 162 2.0 5.0 0.00 0.00 0.00 78 1011.4
20260831070406 62 165 2.0 5.0 0.00 0.00 0.00 78 1011.5
20260831065904 62 186 1.0 4.0 0.00 0.00 0.00 78 1011.5
20260831065403 62 162 1.0 5.0 0.00 0.00 0.00 78 1011.5
20260831064904 62 184 3.0 5.0 0.00 0.00 0.00 79 1011.4
20260831064438 61 155 3.0 6.0 0.00 0.00 0.00 79 1011.5
20260831064422 61 151 2.0 6.0 0.00 0.00 0.00 79 1011.4
20260831063406 61 179 2.0 5.0 0.00 0.00 0.00 80 1011.6
20260831062904 61 180 2.0 5.0 0.00 0.00 0.00 80 1011.6
20260831062404 61 180 1.0 5.0 0.00 0.00 0.00 80 1011.5
20260831061903 60 180 2.0 3.0 0.00 0.00 0.00 81 1011.5
20260831061404 60 180 1.0 3.0 0.00 0.00 0.00 82 1011.5
20260831060902 60 180 1.0 5.0 0.00 0.00 0.00 82 1011.3
20260831060404 60 180 2.0 5.0 0.00 0.00 0.00 83 1011.4
20260831055904 60 256 2.0 4.0 0.00 0.00 0.00 84 1011.4
20260831055405 59 256 2.0 4.0 0.00 0.00 0.00 85 1011.4
20260831054903 59 256 3.0 4.0 0.00 0.00 0.00 85 1011.5
20260831054403 59 256 1.0 3.0 0.00 0.00 0.00 85 1011.4
20260831053904 58 259 2.0 3.0 0.00 0.00 0.00 85 1011.5
20260831053403 58 265 2.0 3.0 0.00 0.00 0.00 86 1011.5
20260831052902 58 268 2.0 3.0 0.00 0.00 0.00 87 1011.7
20260831052644 58 268 1.0 3.0 0.00 0.00 0.00 87 1011.5
20260831051904 58 269 1.0 3.0 0.00 0.00 0.00 87 1011.6
20260831051403 58 269 2.0 3.0 0.00 0.00 0.00 87 1011.7
20260831050902 57 269 2.0 3.0 0.00 0.00 0.00 87 1011.7
20260831050405 57 269 1.0 2.0 0.00 0.00 0.00 87 1011.7
20260831045903 57 269 0.0 1.0 0.00 0.00 0.00 87 1011.6
20260831045405 56 269 0.0 0.0 0.00 0.00 0.00 87 1011.7
20260831044903 56 269 0.0 0.0 0.00 0.00 0.00 87 1011.7
20260831044404 56 269 0.0 0.0 0.00 0.00 0.00 87 1011.6
20260831044142 56 269 0.0 0.0 0.00 0.00 0.00 87 1011.7
20260831043402 55 269 0.0 0.0 0.00 0.00 0.00 87 1011.7
20260831042903 55 269 0.0 0.0 0.00 0.00 0.00 86 1011.7
20260831042403 55 269 0.0 0.0 0.00 0.00 0.00 86 1011.6
20260831041902 55 269 0.0 0.0 0.00 0.00 0.00 86 1011.7
20260831041841 56 269 0.0 0.0 0.00 0.00 0.00 86 1012.0
20260831041829 55 269 0.0 0.0 0.00 0.00 0.00 86 1011.9
20260831041825 55 269 0.0 0.0 0.00 0.00 0.00 86 1011.8
20260831041730 55 269 0.0 0.0 0.00 0.00 0.00 86 1011.6
20260831040725 55 269 0.0 0.0 0.00 0.00 0.00 86 1011.9
20260831034903 56 269 0.0 0.0 0.00 0.00 0.00 86 1011.9
20260831034402 56 269 0.0 0.0 0.00 0.00 0.00 86 1011.9
20260831033904 56 269 0.0 0.0 0.00 0.00 0.00 86 1011.9
20260831033640 56 269 0.0 0.0 0.00 0.00 0.00 86 1012.0
20260831032903 56 269 0.0 0.0 0.00 0.00 0.00 86 1012.0
20260831032646 56 269 0.0 0.0 0.00 0.00 0.00 85 1012.1
20260831031903 56 269 0.0 0.0 0.00 0.00 0.00 85 1012.2
20260831031652 56 269 0.0 0.0 0.00 0.00 0.00 85 1012.3
20260831030902 56 269 0.0 0.0 0.00 0.00 0.00 86 1012.2
20260831030403 57 269 0.0 0.0 0.00 0.00 0.00 86 1012.3
20260831025904 57 269 0.0 0.0 0.00 0.00 0.00 86 1012.3
20260831025446 57 269 0.0 0.0 0.00 0.00 0.00 85 1012.4
20260831025432 57 269 0.0 0.0 0.00 0.00 0.00 85 1012.3
20260831024404 57 269 0.0 0.0 0.00 0.00 0.00 85 1012.3
20260831024146 57 269 0.0 0.0 0.00 0.00 0.00 85 1012.4
20260831023403 57 269 0.0 0.0 0.00 0.00 0.00 85 1012.5
20260831022904 57 269 0.0 0.0 0.00 0.00 0.00 85 1012.5
20260831022643 57 269 0.0 0.0 0.00 0.00 0.00 85 1012.6
20260831021904 57 269 0.0 0.0 0.00 0.00 0.00 85 1012.6
20260831021404 57 269 0.0 0.0 0.00 0.00 0.00 84 1012.6
20260831020902 57 269 0.0 0.0 0.00 0.00 0.00 84 1012.6
20260831020402 57 269 0.0 0.0 0.00 0.00 0.00 84 1012.7
20260831015904 57 269 0.0 0.0 0.00 0.00 0.00 84 1012.7
20260831015403 58 269 0.0 0.0 0.00 0.00 0.00 84 1012.8
20260831014904 58 269 0.0 0.0 0.00 0.00 0.00 84 1012.8
20260831014645 58 269 0.0 0.0 0.00 0.00 0.00 84 1012.9
20260831013903 58 269 0.0 0.0 0.00 0.00 0.00 84 1012.9
20260831013403 58 269 0.0 0.0 0.00 0.00 0.00 84 1012.9
20260831013129 58 269 0.0 0.0 0.00 0.00 0.00 84 1012.8
20260831012348 58 269 0.0 0.0 0.00 0.00 0.00 84 1012.8
20260831011849 58 269 0.0 0.0 0.00 0.00 0.00 84 1012.9
20260831011349 58 269 0.0 0.0 0.00 0.00 0.00 84 1012.9
20260831010846 58 269 0.0 0.0 0.00 0.00 0.00 84 1012.8
20260831010347 58 269 0.0 0.0 0.00 0.00 0.00 83 1012.8
20260831005847 59 269 0.0 0.0 0.00 0.00 0.00 83 1012.9
20260831005636 59 269 0.0 0.0 0.00 0.00 0.00 83 1013.0
20260831004845 59 269 0.0 0.0 0.00 0.00 0.00 83 1013.0
20260831004633 59 269 0.0 0.0 0.00 0.00 0.00 83 1013.0
20260831003848 59 269 0.0 0.0 0.00 0.00 0.00 83 1013.0
20260831003628 59 269 0.0 0.0 0.00 0.00 0.00 83 1013.0
20260831002847 59 269 0.0 0.0 0.00 0.00 0.00 83 1013.0
20260831002347 59 269 0.0 0.0 0.00 0.00 0.00 83 1013.0
20260831001848 59 269 0.0 0.0 0.00 0.00 0.00 83 1013.0
20260831001348 60 269 0.0 0.0 0.00 0.00 0.00 82 1013.0
20260831000848 60 269 0.0 0.0 0.00 0.00 0.00 82 1013.0
20260831000347 60 269 0.0 0.0 0.00 0.00 0.00 82 1013.0
20260830235846 60 269 0.0 0.0 0.00 0.00 0.00 82 1013.2
20260830235347 60 269 0.0 0.0 0.00 0.00 0.00 82 1013.1
20260830234846 60 269 0.0 0.0 0.00 0.00 0.00 82 1013.2
20260830234347 60 269 0.0 0.0 0.00 0.00 0.00 82 1013.0
20260830233847 60 269 0.0 0.0 0.00 0.00 0.00 82 1013.0
20260830233349 60 269 0.0 0.0 0.00 0.00 0.00 82 1013.2
20260830232847 60 269 0.0 0.0 0.00 0.00 0.00 82 1013.1
20260830232346 60 269 0.0 0.0 0.00 0.00 0.00 82 1013.0
20260830231844 60 269 0.0 0.0 0.00 0.00 0.00 82 1013.2
20260830231624 60 269 0.0 0.0 0.00 0.00 0.00 82 1013.2
20260830230845 61 269 0.0 0.0 0.00 0.00 0.00 82 1013.2
20260830230345 61 269 0.0 0.0 0.00 0.00 0.00 82 1013.2
20260830225845 61 269 0.0 0.0 0.00 0.00 0.00 82 1013.3
20260830225347 61 269 0.0 0.0 0.00 0.00 0.00 82 1013.2
20260830224846 61 269 0.0 0.0 0.00 0.00 0.00 82 1013.1
20260830224346 61 269 0.0 0.0 0.00 0.00 0.00 82 1013.1
20260830223845 61 269 0.0 0.0 0.00 0.00 0.00 82 1013.2
20260830223347 61 269 0.0 0.0 0.00 0.00 0.00 81 1013.2
20260830222836 61 269 0.0 0.0 0.00 0.00 0.00 81 1013.2
20260830222334 61 269 0.0 2.0 0.00 0.00 0.00 81 1013.1
20260830221807 61 269 1.0 2.0 0.00 0.00 0.00 81 1013.1
20260830221303 61 269 1.0 2.0 0.00 0.00 0.00 81 1013.1
20260830220803 61 269 1.0 1.0 0.00 0.00 0.00 81 1013.2
20260830220252 61 269 0.0 0.0 0.00 0.00 0.00 81 1013.2
20260830215935 61 269 2.0 3.0 0.00 0.00 0.00 81 1013.2
20260830215207 61 269 2.0 4.0 0.00 0.00 0.00 81 1013.2
20260830214635 62 269 2.0 4.0 0.00 0.00 0.00 82 1013.2
20260830214136 62 269 2.0 3.0 0.00 0.00 0.00 81 1013.2
20260830213634 62 269 2.0 3.0 0.00 0.00 0.00 81 1013.1
20260830213134 62 269 1.0 2.0 0.00 0.00 0.00 81 1013.1
20260830212634 62 269 2.0 2.0 0.00 0.00 0.00 81 1013.1
20260830212135 62 269 2.0 2.0 0.00 0.00 0.00 81 1013.1
20260830211633 62 269 2.0 2.0 0.00 0.00 0.00 81 1013.0
20260830211135 62 269 1.0 2.0 0.00 0.00 0.00 81 1013.0
20260830210634 63 269 2.0 3.0 0.00 0.00 0.00 80 1012.9
20260830210342 63 269 2.0 3.0 0.00 0.00 0.00 80 1013.0
20260830205603 63 269 2.0 3.0 0.00 0.00 0.00 80 1013.0
20260830205108 63 269 1.0 2.0 0.00 0.00 0.00 79 1013.0
20260830204604 63 269 0.0 0.0 0.00 0.00 0.00 79 1013.0
20260830204107 64 269 0.0 0.0 0.00 0.00 0.00 79 1012.9
20260830203605 64 269 0.0 0.0 0.00 0.00 0.00 79 1012.8
20260830203140 64 269 0.0 0.0 0.00 0.00 0.00 78 1012.7
20260830203126 64 269 0.0 0.0 0.00 0.00 0.00 79 1012.8
20260830202104 64 269 0.0 0.0 0.00 0.00 0.00 78 1012.8
20260830201600 64 269 0.0 0.0 0.00 0.00 0.00 78 1012.8
20260830201342 65 269 0.0 0.0 0.00 0.00 0.00 78 1012.7
20260830200603 65 269 0.0 0.0 0.00 0.00 0.00 78 1012.7
20260830195601 65 269 0.0 0.0 0.00 0.00 0.00 78 1012.8
20260830195344 65 269 0.0 0.0 0.00 0.00 0.00 79 1012.7
20260830194628 66 269 0.0 0.0 0.00 0.00 0.00 79 1012.7
20260830194619 65 269 0.0 0.0 0.00 0.00 0.00 79 1012.7
20260830193844 66 269 0.0 0.0 0.00 0.00 0.00 79 1012.7
20260830193100 66 269 0.0 0.0 0.00 0.00 0.00 79 1012.7
20260830192839 66 269 0.0 0.0 0.00 0.00 0.00 79 1012.6
20260830192342 66 269 0.0 1.0 0.00 0.00 0.00 78 1012.6
20260830191838 67 269 1.0 1.0 0.00 0.00 0.00 78 1012.6
20260830191100 67 270 1.0 1.0 0.00 0.00 0.00 78 1012.7
20260830190601 67 269 0.0 0.0 0.00 0.00 0.00 78 1012.6
20260830190100 67 269 0.0 1.0 0.00 0.00 0.00 77 1012.6
20260830185835 67 269 0.0 1.0 0.00 0.00 0.00 76 1012.6
20260830185100 68 269 1.0 1.0 0.00 0.00 0.00 76 1012.6
20260830184558 68 269 0.0 0.0 0.00 0.00 0.00 76 1012.5
20260830184101 68 269 0.0 0.0 0.00 0.00 0.00 75 1012.5
20260830183600 69 269 0.0 0.0 0.00 0.00 0.00 75 1012.5
20260830183101 69 269 0.0 1.0 0.00 0.00 0.00 75 1012.4
20260830182602 69 269 1.0 2.0 0.00 0.00 0.00 74 1012.3
20260830182101 70 269 1.0 2.0 0.00 0.00 0.00 74 1012.3
20260830181628 71 269 2.0 2.0 0.00 0.00 0.00 70 1012.2
20260830181620 70 269 1.0 2.0 0.00 0.00 0.00 73 1012.2
20260830180536 71 269 1.0 2.0 0.00 0.00 0.00 70 1012.1
20260830180412 72 269 1.0 2.0 0.00 0.00 0.00 69 1012.2
20260830180406 71 269 1.0 2.0 0.00 0.00 0.00 70 1012.1
20260830175349 73 269 2.0 3.0 0.00 0.00 0.00 68 1012.0
20260830175058 72 269 1.0 3.0 0.00 0.00 0.00 69 1012.1
20260830174031 73 269 2.0 3.0 0.00 0.00 0.00 67 1012.0
20260830173533 73 269 3.0 4.0 0.00 0.00 0.00 66 1012.0
20260830173031 74 269 3.0 5.0 0.00 0.00 0.00 66 1012.0
20260830172532 74 269 4.0 5.0 0.00 0.00 0.00 66 1011.9
20260830172030 74 273 4.0 5.0 0.00 0.00 0.00 65 1011.8
20260830171523 74 275 3.0 5.0 0.00 0.00 0.00 65 1011.7
20260830171013 75 277 2.0 7.0 0.00 0.00 0.00 64 1011.8
20260830170519 75 248 4.0 7.0 0.00 0.00 0.00 63 1011.7
20260830170009 75 237 2.0 6.0 0.00 0.00 0.00 63 1011.7
20260830165501 0 237 4.0 6.0 0.00 0.00 0.00 1011.7
20260830165001 0 249 3.0 2.0 0.00 0.00 0.00 1011.7
20260830164733 0 0.0 0.0 0.00 0.00 0.00
20260830164237 76 245 6.0 6.0 0.00 0.00 0.00 61 1011.6
20260830164228 76 245 6.0 10.0 0.00 0.00 0.00 61 1011.6
20260830163219 76 268 6.0 10.0 0.00 0.00 0.00 61 1011.7
20260830162716 76 231 5.0 10.0 0.00 0.00 0.00 61 1011.7
20260830162218 76 266 6.0 12.0 0.00 0.00 0.00 61 1011.7
20260830161717 76 251 5.0 12.0 0.00 0.00 0.00 61 1011.7
20260830161219 76 286 7.0 11.0 0.00 0.00 0.00 60 1011.7
20260830160951 77 299 6.0 11.0 0.00 0.00 0.00 60 1011.6
20260830160219 77 249 6.0 12.0 0.00 0.00 0.00 59 1011.6
20260830155718 77 224 8.0 14.0 0.00 0.00 0.00 59 1011.7
20260830155218 78 232 9.0 14.0 0.00 0.00 0.00 59 1011.7
20260830154716 78 268 9.0 13.0 0.00 0.00 0.00 59 1011.7
20260830154506 78 239 4.0 13.0 0.00 0.00 0.00 59 1011.7
20260830153716 78 234 7.0 13.0 0.00 0.00 0.00 59 1011.7
20260830153218 78 249 4.0 13.0 0.00 0.00 0.00 59 1011.6
20260830153000 78 246 6.0 12.0 0.00 0.00 0.00 59 1011.6
20260830152216 78 249 6.0 12.0 0.00 0.00 0.00 59 1011.7
20260830151951 78 273 7.0 14.0 0.00 0.00 0.00 59 1011.6
20260830151216 78 287 6.0 14.0 0.00 0.00 0.00 57 1011.7
20260830150714 78 204 6.0 10.0 0.00 0.00 0.00 57 1011.8
20260830150215 78 253 6.0 11.0 0.00 0.00 0.00 57 1011.8
20260830145714 79 225 8.0 12.0 0.00 0.00 0.00 57 1011.7
20260830145253 78 245 3.0 13.0 0.00 0.00 0.00 58 1011.7
20260830145242 79 245 6.0 12.0 0.00 0.00 0.00 58 1011.7
20260830144215 78 220 10.0 13.0 0.00 0.00 0.00 58 1011.7
20260830143713 79 263 10.0 14.0 0.00 0.00 0.00 58 1011.8
20260830143215 79 262 10.0 18.0 0.00 0.00 0.00 58 1011.6
20260830142713 79 262 12.0 18.0 0.00 0.00 0.00 56 1011.7
20260830142215 79 227 10.0 15.0 0.00 0.00 0.00 54 1011.6
20260830141953 80 215 8.0 12.0 0.00 0.00 0.00 54 1011.7
20260830141215 80 222 10.0 19.0 0.00 0.00 0.00 53 1011.5
20260830140712 80 229 11.0 19.0 0.00 0.00 0.00 53 1011.7
20260830140214 81 218 8.0 15.0 0.00 0.00 0.00 52 1011.6
20260830135712 81 283 8.0 15.0 0.00 0.00 0.00 52 1011.6
20260830135212 81 238 7.0 14.0 0.00 0.00 0.00 55 1011.6
20260830134712 80 249 7.0 18.0 0.00 0.00 0.00 53 1011.6
20260830134214 80 248 11.0 18.0 0.00 0.00 0.00 53 1011.6
20260830133712 81 231 13.0 17.0 0.00 0.00 0.00 53 1011.5
20260830133448 81 218 9.0 14.0 0.00 0.00 0.00 53 1011.5
20260830132954 81 248 8.0 13.0 0.00 0.00 0.00 52 1011.5
20260830132214 81 260 5.0 15.0 0.00 0.00 0.00 52 1011.3
20260830131713 81 207 13.0 15.0 0.00 0.00 0.00 53 1011.4
20260830131214 81 238 9.0 19.0 0.00 0.00 0.00 53 1011.4
20260830130713 81 241 14.0 19.0 0.00 0.00 0.00 51 1011.4
20260830130214 81 248 12.0 16.0 0.00 0.00 0.00 52 1011.4
20260830125713 82 210 11.0 16.0 0.00 0.00 0.00 53 1011.3
20260830125525 81 204 10.0 20.0 0.00 0.00 0.00 50 1011.3
20260830125232 81 208 9.0 20.0 0.00 0.00 0.00 52 1011.3
20260830124215 81 213 12.0 20.0 0.00 0.00 0.00 50 1011.3
20260830123713 81 290 8.0 13.0 0.00 0.00 0.00 54 1011.2
20260830123214 80 234 5.0 18.0 0.00 0.00 0.00 56 1011.3
20260830122712 80 229 6.0 18.0 0.00 0.00 0.00 54 1011.5
20260830122214 81 270 9.0 18.0 0.00 0.00 0.00 55 1011.5
20260830121713 81 217 11.0 18.0 0.00 0.00 0.00 53 1011.5
20260830121213 80 193 10.0 18.0 0.00 0.00 0.00 56 1011.4
20260830120713 80 227 13.0 18.0 0.00 0.00 0.00 56 1011.5
20260830120223 80 248 11.0 18.0 0.00 0.00 0.00 56 1011.4
20260830115714 80 239 11.0 14.0 0.00 0.00 0.00 57 1011.4
20260830115214 80 221 6.0 15.0 0.00 0.00 0.00 57 1011.4
20260830114712 79 249 9.0 15.0 0.00 0.00 0.00 57 1011.5
20260830114215 80 248 9.0 14.0 0.00 0.00 0.00 55 1011.4
20260830113711 80 215 6.0 18.0 0.00 0.00 0.00 55 1011.5
20260830113458 81 200 13.0 18.0 0.00 0.00 0.00 53 1011.4
20260830112711 81 242 9.0 14.0 0.00 0.00 0.00 57 1011.4
20260830112212 80 239 10.0 15.0 0.00 0.00 0.00 55 1011.3
20260830111711 81 235 12.0 17.0 0.00 0.00 0.00 53 1011.3
20260830111212 82 215 13.0 17.0 0.00 0.00 0.00 53 1011.3
20260830110711 82 213 8.0 17.0 0.00 0.00 0.00 55 1011.4